パンスターズ彗星

C/2015 V1 ( PanSTARRS )

English version
Home page
Updated on February 7, 2017

---------------------------------------------------------------------

・ プロフィール

発見日 2015年11月2日
発見光度 20.2等
発見者 Pan-STARRS 1 telescope (Haleakala)

・ 写真集

・ 軌道要素

Epoch 2018 Jan. 2.0 TT = JDT 2458120.5
T 2017 Dec. 17.73823 TT                                 MPCW
q   4.2668876            (2000.0)            P               Q
z  -0.0001196      Peri.  179.63764     +0.95387459     +0.22990883
 +/-0.0000012      Node   197.19396     +0.27376417     -0.40229648
e   1.0005104      Incl.  139.22918     +0.12319270     -0.88617124
From 308 observations 2015 Nov. 2-2016 Nov. 10, mean residual 0".4.

・ 星図

・ 光度変化

        m1 = 6.0 + 5 logΔ + 10.0 log r

---------------------------------------------------------------------

軌道要素はM.P.E.C. 2016-V116に掲載されたものです。
星図はステラナビゲータ Ver.8 (アストロアーツ) で作成したものです。
光度グラフはComet for Windowsで作成したものです。

---------------------------------------------------------------------

Copyright(C) Seiichi Yoshida (comet@aerith.net). All rights reserved.